Flag for U.S.A. Weather past 2 weeks in New Bedford, Massachusetts, U.S.A.

Now
32 °F

Sunny.


Feels Like: 27 °F
Forecast: 29 / 44 °F
Wind: 5 mph from Southwest

Location: New Bedford Regional Airport

Current Time: Mar 29, 2015 at 8:43:42 PM

Latest Report: Mar 29, 2015 at 7:53 PM


Visibility: 10 mi

Pressure: 30.15 "Hg

Humidity: 61%

Dew point: 20 °F

Location of New BedfordLocation

Historic Weather in New Bedford — Graph

°F

New Bedford temperature yesterday

Maximum temperature yesterday: 38 °F (at 1:53 AM)
Minimum temperature yesterday: 32 °F (at 8:53 PM)
Average temperature yesterday: 35 °F

Past Weeks' High & Low Weather Summary

 TemperatureHumidityPressure
High54 °F (Mar 26, 9:53 PM)100% (Mar 14, 6:53 PM)30.42 "Hg (Mar 14, 6:53 PM)
Low15 °F (Mar 20, 5:53 AM)18% (Mar 16, 1:53 PM)29.39 "Hg (Mar 17, 3:53 PM)
Average33 °F65%29.96 "Hg
* Reported Mar 14 6:53 PM — Mar 29 6:53 PM, New Bedford, Weather by CustomWeather, © 2015

Note: Actual official high and low records may vary slightly from our data, if they occured in-between our weather recording intervals... More about our weather records

Advertising

New Bedford weather history for previous 24 hours

 ConditionsComfort  
Time TempWeatherWind HumidityBarometerVisibility
6:53 PM
Sun, Mar 29
35 °FSunny.8 mph54%30.13 "Hg10 mi
5:53 PM38 °FSunny.10 mph48%30.12 "Hg10 mi
4:53 PM38 °FSunny.9 mph46%30.12 "Hg10 mi
3:53 PM39 °FSunny.10 mph46%30.13 "Hg10 mi
2:53 PM41 °FSunny.5 mph24%30.15 "Hg10 mi
1:53 PM39 °FSunny.7 mph33%30.16 "Hg10 mi
12:53 PM37 °FSunny.9 mph42%30.17 "Hg10 mi
11:53 AM36 °FSunny.8 mph50%30.19 "Hg10 mi
10:53 AM32 °FSunny.6 mph47%30.20 "Hg10 mi
9:53 AM31 °FPassing clouds.7 mph57%30.19 "Hg10 mi
8:53 AM28 °FOvercast.6 mph66%30.17 "Hg10 mi
7:53 AM25 °FOvercast.6 mph72%30.16 "Hg10 mi
6:53 AM23 °FPassing clouds.6 mph78%30.13 "Hg10 mi
5:53 AM23 °FPassing clouds.3 mph78%30.10 "Hg10 mi
4:53 AM25 °FMostly cloudy.5 mph75%30.08 "Hg10 mi
3:53 AM27 °FLight snow. Ice fog.7 mph85%30.06 "Hg5 mi
3:04 AM28 °FLight snow. Ice fog.10 mph89%30.05 "Hg6 mi
2:04 AM30 °FMostly cloudy.5 mph89%30.04 "Hg10 mi
1:53 AM30 °FMostly cloudy.5 mph89%30.03 "Hg10 mi
12:53 AM30 °FPassing clouds.3 mph92%30.02 "Hg10 mi
11:53 PM
Sat, Mar 28
32 °FLight snow. Ice fog.7 mph92%30.01 "Hg3 mi
10:59 PM32 °FLight snow. Ice fog.3 mph96%29.99 "Hg2 mi
9:53 PM32 °FLight snow. Ice fog.No wind96%29.97 "Hg2 mi
8:53 PM32 °FLight snow. Ice fog.No wind96%29.94 "Hg3 mi
Weather by CustomWeather, © 2015

See weather overviewHow to use our weather pages